Location: Unspecified
(0.0000°N, 0.0000°E)
Time: 12:58:52
(UTC+00:00)

FORMOSAT 3E - Pass Details

Date: 18 May 2026
Orbit: 740 x 833 km, 72.0° (Epoch: 5 June)

Event Time Altitude Azimuth Distance (km) Brightness Sun altitude
Rises 20:34:27 0° 335° (NNW) 3,161 11.8 -36.8°
Reaches altitude 10° 20:36:51 10° 329° (NNW) 2,246 10.9 -37.3°
Enters shadow 20:38:35 21° 321° (NW) 1,627 10.1 -37.7°
